Weather History for Perryton, TX

Change the Weather History Date:

Friday, December 20, 2013

  Actual Average Record
Temperature  
Mean Temperature 25 °F -  
Max Temperature 31 °F 43 °F 71 °F (1978)
Min Temperature 19 °F 18 °F 0 °F (1983)
Degree Days  
Heating Degree Days 40    
Moisture  
Dew Point 17 °F    
Average Humidity 68    
Maximum Humidity 80    
Minimum Humidity 59    
Precipitation  
Precipitation 0.00 in - - ()
Sea Level Pressure  
Sea Level Pressure 29.85 in    
Wind  
Wind Speed 15 mph (NNE)    
Max Wind Speed 29 mph    
Max Gust Speed 39 mph    
Visibility 10 miles    
Events      
Averages and records for this station are not official NWS values.
T = Trace of Precipitation, MM = Missing Value Source: NWS Daily Summary

Daily Weather History Graph

Daily Weather History Graph

Search for Another Location

Airport:

Trip Planner

Search our weather history database for the weather conditions in past years. The results will help you decide how hot, cold, wet, or windy it might be!

Date:

Astronomy

Dec. 20, 2013 Rise Set
Actual Time 7:50 AM CST 5:31 PM CST
Civil Twilight 7:21 AM CST 5:59 PM CST
Nautical Twilight 6:49 AM CST 6:32 PM CST
Astronomical Twilight 6:18 AM CST 7:03 PM CST
Moon 8:48 PM CST (12/20) 9:49 AM CST (12/20)
Length of Visible Light 10h 38m
Length of Day
9h 40m
Waning Gibbous, 90% of the Moon is Illuminated
Dec 20
Waning Gibbous
Dec 25
Last Quarter
Jan 1
New
Jan 7
First Quarter
Jan 15
Full

Hourly Weather History & Observations

Time (CST) Temp. Windchill Dew Point Humidity Pressure Visibility Wind Dir Wind Speed Gust Speed Precip Events Conditions
12:15 AM 31.3 °F 17.9 °F 25.9 °F 80% 29.77 in 10.0 mi North 24.2 mph 33.4 mph N/A   Overcast
12:35 AM 28.9 °F 14.0 °F 23.0 °F 78% 29.80 in 7.0 mi North 27.6 mph 36.8 mph N/A   Overcast
12:55 AM 28.0 °F 12.8 °F 22.1 °F 78% 29.82 in 7.0 mi North 27.6 mph 39.1 mph N/A   Overcast
1:15 AM 27.5 °F 13.2 °F 21.7 °F 79% 29.84 in 7.0 mi North 23.0 mph 34.5 mph N/A   Overcast
1:35 AM 27.5 °F 14.2 °F 21.6 °F 78% 29.83 in 7.0 mi North 19.6 mph 27.6 mph N/A   Overcast
1:55 AM 27.9 °F 14.0 °F 21.7 °F 78% 29.84 in 10.0 mi North 21.9 mph 28.8 mph N/A   Overcast
2:15 AM 28.0 °F 14.9 °F 21.9 °F 78% 29.86 in 10.0 mi North 19.6 mph 29.9 mph N/A   Overcast
2:35 AM 28.2 °F 13.9 °F 21.6 °F 76% 29.85 in 10.0 mi North 24.2 mph 32.2 mph N/A   Overcast
2:55 AM 27.9 °F 13.1 °F 21.2 °F 76% 29.86 in 10.0 mi North 25.3 mph 31.1 mph N/A   Overcast
3:15 AM 27.9 °F 13.1 °F 21.0 °F 75% 29.87 in 10.0 mi North 25.3 mph - N/A   Overcast
3:35 AM 27.5 °F 11.8 °F 20.3 °F 74% 29.87 in 10.0 mi North 28.8 mph 32.2 mph N/A   Overcast
3:55 AM 26.8 °F 11.9 °F 19.8 °F 75% 29.87 in 10.0 mi North 24.2 mph 29.9 mph N/A   Overcast
4:15 AM 26.1 °F 10.4 °F 18.5 °F 73% 29.89 in 10.0 mi North 26.5 mph 33.4 mph N/A   Overcast
4:35 AM 24.8 °F 10.3 °F 17.2 °F 73% 29.89 in 10.0 mi North 20.7 mph - N/A   Overcast
4:55 AM 24.6 °F 10.5 °F 16.7 °F 72% 29.89 in 10.0 mi North 19.6 mph - N/A   Overcast
5:15 AM 22.8 °F 8.5 °F 15.3 °F 73% 29.88 in 10.0 mi North 18.4 mph - N/A   Scattered Clouds
5:35 AM 21.6 °F 6.1 °F 14.7 °F 75% 29.87 in 10.0 mi North 20.7 mph 24.2 mph N/A   Clear
5:55 AM 20.5 °F 8.6 °F 14.2 °F 77% 29.89 in 10.0 mi North 11.5 mph - N/A   Clear
6:15 AM 20.1 °F 8.8 °F 14.0 °F 77% 29.90 in 10.0 mi NNW 10.4 mph - N/A   Clear
6:35 AM 19.8 °F 9.1 °F 13.8 °F 78% 29.91 in 10.0 mi NNW 9.2 mph - N/A   Clear
6:55 AM 19.2 °F 7.0 °F 13.8 °F 80% 29.90 in 10.0 mi NNW 11.5 mph - N/A   Scattered Clouds
7:15 AM 19.2 °F 7.0 °F 14.0 °F 80% 29.90 in 10.0 mi NNW 11.5 mph - N/A   Mostly Cloudy
7:35 AM 19.6 °F 8.1 °F 14.4 °F 80% 29.92 in 10.0 mi NNW 10.4 mph - N/A   Overcast
7:55 AM 20.1 °F 9.5 °F 14.5 °F 79% 29.93 in 10.0 mi NNW 9.2 mph - N/A   Overcast
8:15 AM 20.3 °F 9.8 °F 14.5 °F 78% 29.93 in 10.0 mi NNW 9.2 mph - N/A   Overcast
8:35 AM 21.0 °F 9.3 °F 14.9 °F 77% 29.93 in 10.0 mi North 11.5 mph 18.4 mph N/A   Overcast
8:55 AM 21.2 °F 6.4 °F 15.3 °F 78% 29.92 in 10.0 mi North 18.4 mph - N/A   Overcast
9:15 AM 21.9 °F 8.2 °F 15.6 °F 77% 29.93 in 10.0 mi North 16.1 mph - N/A   Overcast
9:35 AM 22.1 °F 10.0 °F 15.4 °F 76% 29.94 in 10.0 mi North 12.7 mph - N/A   Overcast
9:55 AM 22.6 °F 11.9 °F 15.4 °F 74% 29.94 in 10.0 mi North 10.4 mph - N/A   Overcast
10:15 AM 23.0 °F 11.7 °F 15.6 °F 73% 29.96 in 10.0 mi North 11.5 mph - N/A   Overcast
10:35 AM 23.7 °F 14.0 °F 15.8 °F 72% 29.97 in 10.0 mi NNW 9.2 mph - N/A   Overcast
10:55 AM 23.9 °F 14.2 °F 15.6 °F 71% 29.94 in 10.0 mi North 9.2 mph - N/A   Overcast
11:15 AM 25.0 °F 14.8 °F 16.0 °F 69% 29.94 in 10.0 mi North 10.4 mph 17.3 mph N/A   Scattered Clouds
11:35 AM 25.3 °F 14.1 °F 16.2 °F 68% 29.91 in 10.0 mi North 12.7 mph - N/A   Scattered Clouds
11:55 AM 26.2 °F 15.2 °F 16.2 °F 66% 29.90 in 10.0 mi North 12.7 mph - N/A   Clear
12:15 PM 28.0 °F 18.6 °F 16.7 °F 62% 29.88 in 10.0 mi North 10.4 mph 20.7 mph N/A   Clear
12:35 PM 27.9 °F 19.8 °F 16.3 °F 62% 29.90 in 10.0 mi NNW 8.1 mph - N/A   Clear
12:55 PM 28.2 °F - 16.2 °F 61% 29.89 in 10.0 mi Calm Calm - N/A   Clear
1:15 PM 29.1 °F - 16.5 °F 59% 29.88 in 10.0 mi Calm Calm - N/A   Clear
1:35 PM 29.7 °F 24.7 °F 16.9 °F 59% 29.89 in 10.0 mi WSW 4.6 mph - N/A   Clear
1:55 PM 29.3 °F - 16.5 °F 59% 29.86 in 10.0 mi Calm Calm - N/A   Clear
2:15 PM 29.3 °F - 16.5 °F 59% 29.84 in 10.0 mi Calm Calm - N/A   Clear
2:35 PM 29.3 °F - 16.5 °F 59% 29.85 in 10.0 mi Calm Calm - N/A   Scattered Clouds
2:55 PM 29.5 °F 24.5 °F 16.7 °F 59% 29.84 in 10.0 mi NW 4.6 mph - N/A   Scattered Clouds
3:15 PM 29.7 °F 26.1 °F 16.7 °F 59% 29.84 in 10.0 mi WNW 3.5 mph - N/A   Clear
3:35 PM 29.8 °F - 16.9 °F 59% 29.82 in 10.0 mi Calm Calm - N/A   Clear
3:55 PM 29.5 °F - 16.7 °F 59% 29.82 in 10.0 mi Calm Calm - N/A   Clear
4:15 PM 29.3 °F - 16.5 °F 59% 29.79 in 10.0 mi Calm Calm - N/A   Scattered Clouds
4:35 PM 29.3 °F 25.6 °F 16.5 °F 59% 29.78 in 10.0 mi North 3.5 mph - N/A   Mostly Cloudy
4:55 PM 29.1 °F - 16.5 °F 59% 29.77 in 10.0 mi Calm Calm - N/A   Scattered Clouds
5:15 PM 29.3 °F - 16.7 °F 59% 29.78 in 10.0 mi Calm Calm - N/A   Scattered Clouds
5:35 PM 29.3 °F 25.6 °F 16.7 °F 59% 29.77 in 10.0 mi East 3.5 mph - N/A   Mostly Cloudy
5:55 PM 29.3 °F 24.3 °F 16.7 °F 59% 29.76 in 10.0 mi East 4.6 mph - N/A   Mostly Cloudy
6:15 PM 29.3 °F 23.2 °F 16.7 °F 59% 29.75 in 10.0 mi East 5.8 mph - N/A   Clear
6:35 PM 29.1 °F 24.1 °F 16.7 °F 60% 29.76 in 10.0 mi East 4.6 mph - N/A   Clear
6:55 PM 29.1 °F 23.0 °F 16.5 °F 59% 29.76 in 10.0 mi East 5.8 mph - N/A   Clear
7:15 PM 29.1 °F 23.0 °F 16.5 °F 59% 29.76 in 10.0 mi East 5.8 mph - N/A   Clear
7:35 PM 28.9 °F 21.9 °F 16.2 °F 59% 29.78 in 10.0 mi East 6.9 mph - N/A   Clear
7:55 PM 28.6 °F 21.5 °F 16.7 °F 61% 29.75 in 10.0 mi ENE 6.9 mph - N/A   Clear
8:15 PM 28.4 °F 23.3 °F 16.7 °F 62% 29.79 in 10.0 mi ENE 4.6 mph - N/A   Clear
8:35 PM 28.2 °F 22.0 °F 16.3 °F 61% 29.79 in 10.0 mi East 5.8 mph - N/A   Clear
8:55 PM 28.0 °F 21.7 °F 16.5 °F 62% 29.78 in 10.0 mi ENE 5.8 mph - N/A   Scattered Clouds
9:15 PM 27.9 °F 21.5 °F 16.3 °F 62% 29.79 in 10.0 mi ENE 5.8 mph - N/A   Scattered Clouds
9:35 PM 27.9 °F 20.6 °F 16.3 °F 62% 29.79 in 10.0 mi East 6.9 mph - N/A   Clear
9:55 PM 27.7 °F 19.6 °F 16.2 °F 62% 29.78 in 10.0 mi East 8.1 mph - N/A   Scattered Clouds
10:15 PM 27.5 °F 20.2 °F 16.2 °F 62% 29.80 in 10.0 mi ESE 6.9 mph - N/A   Scattered Clouds
10:35 PM 27.3 °F 19.9 °F 16.0 °F 62% 29.80 in 10.0 mi ESE 6.9 mph - N/A   Clear
10:55 PM 27.1 °F 18.2 °F 16.2 °F 63% 29.80 in 10.0 mi ESE 9.2 mph - N/A   Clear
11:15 PM 26.8 °F 17.7 °F 16.2 °F 64% 29.79 in 10.0 mi ESE 9.2 mph - N/A   Scattered Clouds
11:35 PM 26.6 °F 19.1 °F 16.2 °F 65% 29.78 in 10.0 mi East 6.9 mph - N/A   Clear
11:55 PM 26.8 °F 19.3 °F 16.0 °F 64% 29.76 in 10.0 mi ESE 6.9 mph - N/A   Mostly Cloudy